Miscellaneous Local Product
Issued by NWS Hastings, NE

Home | Current Version | Previous Version | Text Only | Print | Product List | Glossary Off
Versions: 1 2 3 4 5 6 7 8 9 10 11 12 13 14 15 16 17 18 19 20 21 22 23 24 25 26 27 28 29 30 31 32 33 34 35 36 37 38 39 40 41 42 43 44 45 46 47 48 49 50

917
AXUS43 KGID 271302
MISGRI

GID CWA HOURLY WEATHER ROUNDUP
NATIONAL WEATHER SERVICE HASTINGS NE
800 AM CDT SAT MAY 27 2017

NOTE: "FAIR" INDICATES FEW OR NO CLOUDS BELOW 12,000 FEET WITH NO
SIGNIFICANT WEATHER AND/OR OBSTRUCTIONS TO VISIBILITY.

...SOUTH CENTRAL NEBRASKA...

CITY           SKY/WX    TMP DP  RH WIND       PRES   REMARKS
GRAND ISLAND   CLOUDY    58  51  78 NE16      29.91F
HASTINGS       CLOUDY    58  51  78 NE9       29.90R
KEARNEY        CLOUDY    57  48  72 NE9       29.91R
ORD            PTSUNNY   57  50  77 NE6       29.92S
YORK           CLOUDY    57  52  82 N12G21    29.88F
AURORA         CLOUDY    57  52  81 NE14      29.90F
LEXINGTON      CLOUDY    56  51  85 E7        29.92R
HOLDREGE       CLOUDY    56  51  82 NE10      29.90R
HEBRON         CLOUDY    59  56  89 N3        29.89R

...NEBRASKA PANHANDLE...

CITY           SKY/WX    TMP DP  RH WIND       PRES   REMARKS
CHADRON        CLOUDY    51  47  86 CALM      30.02S
ALLIANCE       CLOUDY    49  47  93 N7        30.01R
SCOTTSBLUFF    CLOUDY    50  47  89 W6        30.04R
SIDNEY         CLOUDY    50  48  93 N14       30.03R

...WESTERN AND NORTH CENTRAL NEBRASKA...

CITY           SKY/WX    TMP DP  RH WIND       PRES   REMARKS
VALENTINE      CLOUDY    54  48  80 N7        29.99R
AINSWORTH      CLOUDY    53  50  88 NE8       29.97S
ONEILL         CLOUDY    56  54  91 CALM      29.96S
BROKEN BOW     CLOUDY    56  52  86 N7        29.93F
IMPERIAL       CLOUDY    52  50  93 N12       29.96R
NORTH PLATTE   CLOUDY    54  51  90 E6        29.94S
MCCOOK         MOSUNNY   58  56  93 N13       29.91R

...EASTERN NEBRASKA...

CITY           SKY/WX    TMP DP  RH WIND       PRES   REMARKS
NORFOLK        LGT RAIN  55  50  83 NE7       29.92F
SO SIOUX CITY  CLOUDY    57  52  83 NW9       29.92R
TEKAMAH        CLOUDY    59  49  69 N12       29.90R
ALBION         CLOUDY    58  50  74 NE6       29.92F
OMAHA EPPLEY   CLOUDY    61  49  64 NW7       29.87F
OFFUTT AFB     CLOUDY    63  47  55 NE5       29.86S
MILLARD        CLOUDY    65  50  59 CALM      29.87S
LINCOLN        LGT RAIN  57  53  86 NW5       29.96S FOG
NEBRASKA CITY  TSTM      58  53  85 SW29G46   29.93R
BEATRICE       RAIN      57  55  93 N15       29.84F
FALLS CITY     TSTM      60  56  86 CALM      29.93R FOG

...NORTHERN KANSAS...

CITY           SKY/WX    TMP DP  RH WIND       PRES   REMARKS
GOODLAND       CLOUDY    53  52  96 NW18      29.95R
HILL CITY      PTSUNNY   58  57  97 W8        29.89R
NORTON         PTSUNNY   55  52  88 NW6       29.89R
PHILLIPSBURG   SUNNY     59  59 100 E5        29.84R
SMITH CENTER   MOSUNNY   55  54  94 E16       29.82F
HAYS           LGT RAIN  58  56  93 SE15      29.85F
RUSSELL        CLOUDY    58  57  97 SE13      29.85F
CONCORDIA      LGT RAIN  59  58  96 CALM      29.90R
SALINA         PTSUNNY   63  59  87 N7        29.88S
TOPEKA         CLOUDY    61  61 100 CALM      29.91F THUNDER



USA.gov is the U.S. government's official web portal to all federal, state and local government web resources and services.